Regional Weather Roundup
Issued by NWS

Home | Current Version | Previous Version | Graphics & Text | Print | Product List | Glossary Off
Versions: 1 2 3 4 5 6 7 8 9 10 11 12 13 14 15 16 17 18 19 20 21 22 23 24 25 26 27 28 29 30 31 32 33 34 35 36 37 38 39 40 41 42 43 44 45 46 47 48 49 50

000
ASUS43 KMPX 281001
RWRMN
WEATHER ROUNDUP FOR MINNESOTA
NATIONAL WEATHER SERVICE TWIN CITIES/CHANHASSEN MN
500 AM CDT SUN MAY 28 2017


NOTE: "FAIR" INDICATES FEW OR NO CLOUDS BELOW 12,000 FEET WITH NO
SIGNIFICANT WEATHER AND/OR OBSTRUCTIONS TO VISIBILITY. N/A MEANS
CURRENT SKY AND/OR WEATHER CONDITIONS ARE NOT AVAILABLE.

MNZ060>063-068>070-281100-
   Twin Cities Metro

CITY           SKY/WX    TMP DP  RH WIND       PRES   REMARKS
TWIN CITIES    MOCLDY    59  49  69 S6        29.74F
ST PAUL        PTCLDY    56  52  86 SE9       29.74F
CRYSTAL        CLOUDY    57  47  69 S3        29.72F
BLAINE         CLOUDY    59  50  72 S6        29.72F
LAKEVILLE      CLEAR     50  46  87 S5        29.75F
EDEN PRAIRIE   MOCLDY    54  50  86 S6        29.73F
SOUTH ST PAUL  PTCLDY    55  49  79 SE3       29.74F
LAKE ELMO      FAIR      52  48  87 S5        29.75F
$$
MNZ001>005-007-008-013>017-022>024-027-028-281100-
   Northwest Minnesota

CITY           SKY/WX    TMP DP  RH WIND       PRES   REMARKS
BEMIDJI        CLOUDY    49  47  95 W13       29.69S
HALLOCK        PTCLDY    46  45  93 NW7       29.72S
ROSEAU         CLOUDY    52  46  82 W5        29.68R
WARROAD        CLOUDY    52  48  87 W3        29.67S
CROOKSTON      CLOUDY    50  48  93 NW7       29.73S
FOSSTON        CLOUDY    48  46  93 W9        29.71F
DETROIT LAKES  MOCLDY    50  46  87 NW10      29.75S
MOORHEAD       CLOUDY    52  48  87 W6        29.77S
PARK RAPIDS    LGT RAIN  49  44  83 W9        29.71S
MAHNOMEN       CLOUDY    49  47  95 W8        29.72S
$$
MNZ006-009>011-018-025>026-281100-
   North Central Minnesota

CITY           SKY/WX    TMP DP  RH WIND       PRES   REMARKS
BAUDETTE       PTCLDY    49  44  83 W3        29.65S
FLAG ISLAND    CLOUDY    54  46  76 NW14G20   29.64S
INTL FALLS     PTCLDY    49  44  83 SW7       29.65S
WASKISH        CLOUDY    52  48  87 SW8       29.67S
BIG FORK       CLOUDY    54  48  82 CALM      29.65F
LONGVILLE      CLOUDY    52  48  87 W6        29.69S
GRAND RAPIDS   LGT RAIN  54  49  83 W3        29.69S
CRANE LAKE     LGT RAIN  48  48 100 SW7       29.70R
COOK           LGT RAIN  52  48  87 N5        29.67F
WALKER         CLOUDY    48  47  95 W10G17    29.69S
$$
MNZ012-019>021-037-281100-
   Northeast Minnesota

CITY           SKY/WX    TMP DP  RH WIND       PRES   REMARKS
DULUTH         CLOUDY    55  47  74 SW10      29.68F
ELY            CLOUDY    50  45  81 CALM      29.68S
HIBBING        LGT RAIN  47  47 100 CALM      29.66F
EVELETH        DRIZZLE   44  42  93 N3        29.68F
DULUTH HARBOR  CLOUDY    55  50  82 CALM      29.68F
TWO HARBORS    CLOUDY    54  46  76 CALM      29.67F
SILVER BAY     CLOUDY    46  45  93 CALM      29.67F
GRAND MARAIS     N/A     44  40  85 CALM      29.69F
G MARAIS ARPRT CLOUDY    46  39  76 CALM      29.71F
$$
MNZ029>031-032-039>041-046>048-054>057-064-281100-
   West Central Minnesota

CITY           SKY/WX    TMP DP  RH WIND       PRES   REMARKS
FERGUS FALLS   CLEAR     48  48 100 NW9       29.77R
WHEATON        CLEAR     52  45  76 W10       29.80F
MORRIS         CLEAR     50  46  87 W13       29.78S
ALEXANDRIA     CLEAR     50  47  89 W10       29.75F
ELBOW LAKE     FAIR      47  46  95 NW8       29.77S
WADENA         CLOUDY    48  46  93 W7        29.72F
GLENWOOD       CLEAR     48  46  93 W12       29.76S
APPLETON       CLEAR     52  46  82 W7        29.79S
BENSON         CLEAR     52  46  82 N12       29.79S
ORTONVILLE     CLEAR     52  46  82 NW8       29.80S
MADISON        CLEAR     55  46  71 NW12      29.80F
WILLMAR        FAIR      54  48  82 W12       29.78S
$$
MNZ033>034-036-042>043-049>051-058-059-281100-
   Central Minnesota

CITY           SKY/WX    TMP DP  RH WIND       PRES   REMARKS
ST CLOUD       PTCLDY    53  48  83 W8        29.72S
SAUK CENTRE    FAIR      49  46  88 W7        29.75S
PAYNESVILLE    CLEAR     50  49  96 SW5       29.75F
AITKIN         CLOUDY    48  46  93 CALM      29.68S
PINE RIVER     PTCLDY    52  46  82 W6        29.74S
BRAINERD       PTCLDY    53  46  77 W7        29.72R
STAPLES        CLOUDY    48  46  93 W5        29.72F
LONG PRAIRIE   FAIR      50  45  81 SW5       29.74S
LITTLE FALLS   PTCLDY    52  45  76 W5        29.73S
LITCHFIELD     CLEAR     55  50  82 W6        29.76S
BUFFALO        MOCLDY    56  48  73 SW3       29.74S
MAPLE LAKE     PTCLDY    56  50  79 SW3       29.74S
HUTCHINSON     PTCLDY    56  49  79 SW8       29.76S
$$
MNZ037-044-045-052-053-281100-
   East Central Minnesota

CITY           SKY/WX    TMP DP  RH WIND       PRES   REMARKS
PRINCETON      CLOUDY    57  48  72 SW3       29.72S
MORA           CLOUDY    55  46  71 W5        29.70F
CAMBRIDGE      CLOUDY    59  46  63 CALM      29.70R
RUSH CITY      CLOUDY    54  48  78 CALM      29.69F
MOOSE LAKE     CLOUDY    46  45  93 SW5       29.68S
HINCKLEY       LGT RAIN  54  50  87 CALM      29.69F
CLOQUET        CLOUDY    52  45  76 SW6       29.68F
MCGREGOR       CLOUDY    54  46  76 SW5       29.69F
$$
MNZ071>073-080-081-089-090-097-098-281100-
   Southwest Minnesota

CITY           SKY/WX    TMP DP  RH WIND       PRES   REMARKS
MONTEVIDEO     CLEAR     54  46  76 NW6       29.79S
CANBY          CLEAR     52  47  82 CALM      29.82S
MARSHALL       CLEAR     54  47  77 NW10      29.81R
REDWOOD FALLS  CLEAR     56  48  74 NW14G21   29.77S
OLIVIA         CLEAR     54  46  76 NW13G20   29.77S
PIPESTONE      CLEAR     54  45  71 NW8       29.83S
WINDOM         CLEAR     54  48  82 W9        29.81R
WORTHINGTON    CLEAR     51  48  89 W13       29.82F
JACKSON        CLEAR     54  46  76 SW9       29.82S
TRACY          CLEAR     56  49  77 W12G20    29.80F
SLAYTON        CLEAR     53  49  85 W14       29.82S
$$
MNZ065>067-074>077-082>085-091>093-281100-
   South Central Minnesota

CITY           SKY/WX    TMP DP  RH WIND       PRES   REMARKS
MANKATO        CLEAR     57  50  77 SW9       29.77F
NEW ULM        CLEAR     54  48  82 SW6       29.78R
ST JAMES       PTCLDY    55  48  76 SW6       29.80R
FAIRMONT       MOCLDY    55  50  83 SW9       29.80F
GLENCOE        PTCLDY    57  52  82 SW6       29.75S
FARIBAULT      PTCLDY    55  50  82 S3        29.77F
OWATONNA       CLEAR     54  48  82 S10       29.78F
WASECA         CLEAR     52  46  82 S7        29.79F
ALBERT LEA     CLEAR     57  52  82 SW5       29.80F
$$
MNZ078>079-086>088-094>096-281100-
   Southeast Minnesota

CITY           SKY/WX    TMP DP  RH WIND       PRES   REMARKS
ROCHESTER      PTCLDY    53  50  89 SW8       29.80F
RED WING       CLEAR     54  48  82 CALM      29.76S
STANTON        CLEAR     55  48  77 S3        29.75F
DODGE CENTER   CLEAR     54  48  82 SW8       29.79F
WINONA         CLOUDY    55  54  94 CALM      29.78F
AUSTIN         CLEAR     52  48  87 SW5       29.80S
PRESTON        CLOUDY    56  49  78 SW7       29.80F
$$
ABBREVIATIONS USED IN REMARKS
   TC - TEMPERATURES IN CELSIUS
  WCI - WIND CHILL INDEX
   HX - HEAT INDEX
  VSB - VISIBILITY
$$




USA.gov is the U.S. government's official web portal to all federal, state and local government web resources and services.